Altoona, PA

4:45 AM EST on November 23, 2017 (GMT -0500)
Altoona-Blair County

Weather History for KAOO - June, 2013

Change the Weather History Date:

Saturday, June 29, 2013

  Actual Average Record
Temperature  
Mean Temperature 70 °F 70 °F  
Max Temperature 78 °F 80 °F 95 °F (2012)
Min Temperature 62 °F 59 °F 46 °F (1956)
Degree Days  
Heating Degree Days 0 1  
Month to date heating degree days 58  
Since 1 June heating degree days 58  
Since 1 July heating degree days 6204  
Cooling Degree Days 5 5  
Month to date cooling degree days 103  
Year to date cooling degree days 136  
Since 1 June cooling degree days 103  
Growing Degree Days 20 (Base 50)    
Moisture  
Dew Point 60 °F    
Average Humidity 74    
Maximum Humidity 90    
Minimum Humidity 54    
Precipitation  
Precipitation 0.00 in 0.11 in 0.53 in (1972)
Month to date precipitation 3.37  
Year to date precipitation 17.55  
Sea Level Pressure  
Sea Level Pressure 29.63 in    
Wind  
Wind Speed 6 mph (SW)    
Max Wind Speed 14 mph    
Max Gust Speed -    
Visibility 10 miles    
Events      
T = Trace of Precipitation, MM = Missing Value Source: NWS Daily Summary

Daily Weather History Graph

Daily Weather History Graph

Search for Another Location

Airport or City:

Trip Planner

Search our weather history database for the weather conditions in past years. The results will help you decide how hot, cold, wet, or windy it might be!

Date:

Astronomy

Jun. 29, 2013 Rise Set
Actual Time 5:46 AM EDT 8:47 PM EDT
Civil Twilight 5:13 AM EDT 9:20 PM EDT
Nautical Twilight 4:31 AM EDT 10:01 PM EDT
Astronomical Twilight 3:42 AM EDT 10:50 PM EDT
Moon 12:14 AM EDT (6/29) 12:56 PM EDT (6/29)
Length of Visible Light 16h 06m
Length of Day
15h 00m
Waning Gibbous, 56% of the Moon is Illuminated
Jun 29
Waning Gibbous
Jun 30
Last Quarter
Jul 8
New
Jul 15
First Quarter
Jul 22
Full

Hourly Weather History & Observations

Time (EDT) Temp. Dew Point Humidity Pressure Visibility Wind Dir Wind Speed Gust Speed Precip Events Conditions
12:53 AM 62.1 °F 57.0 °F 84% 29.57 in 10.0 mi SSW 3.5 mph - N/A   Clear
1:53 AM 62.1 °F 57.9 °F 86% 29.57 in 10.0 mi SSW 6.9 mph - N/A   Clear
2:53 AM 62.1 °F 59.0 °F 90% 29.56 in 10.0 mi WSW 3.5 mph - N/A   Clear
3:53 AM 62.1 °F 57.9 °F 86% 29.55 in 10.0 mi West 4.6 mph - N/A   Clear
4:53 AM 63.0 °F 59.0 °F 87% 29.56 in 10.0 mi SW 8.1 mph - N/A   Mostly Cloudy
5:53 AM 63.0 °F 59.0 °F 87% 29.58 in 10.0 mi SW 3.5 mph - N/A   Mostly Cloudy
6:08 AM 62.6 °F 57.2 °F 82% 29.61 in 10.0 mi SSW 4.6 mph - N/A   Scattered Clouds
6:24 AM 62.6 °F 59.0 °F 88% 29.62 in 10.0 mi SSW 5.8 mph - N/A   Mostly Cloudy
6:31 AM 62.6 °F 59.0 °F 88% 29.62 in 9.0 mi SSW 5.8 mph - N/A   Scattered Clouds
6:53 AM 64.9 °F 59.0 °F 81% 29.60 in 10.0 mi SSW 5.8 mph - N/A   Scattered Clouds
7:15 AM 66.2 °F 60.8 °F 83% 29.63 in 10.0 mi SSW 6.9 mph - N/A   Mostly Cloudy
7:53 AM 66.9 °F 59.0 °F 76% 29.62 in 10.0 mi SW 9.2 mph - N/A   Mostly Cloudy
8:50 AM 68.0 °F 59.0 °F 73% 29.65 in 10.0 mi WSW 9.2 mph - N/A   Scattered Clouds
8:53 AM 68.0 °F 59.0 °F 73% 29.63 in 10.0 mi West 9.2 mph - N/A   Partly Cloudy
9:46 AM 71.6 °F 60.8 °F 69% 29.66 in 10.0 mi WSW 9.2 mph - N/A   Mostly Cloudy
9:53 AM 71.1 °F 60.1 °F 68% 29.63 in 10.0 mi West 8.1 mph - N/A   Mostly Cloudy
10:08 AM 71.6 °F 60.8 °F 69% 29.66 in 10.0 mi West 8.1 mph - N/A   Scattered Clouds
10:30 AM 71.6 °F 59.0 °F 64% 29.65 in 10.0 mi WSW 13.8 mph - N/A   Mostly Cloudy
10:41 AM 73.4 °F 60.8 °F 65% 29.66 in 10.0 mi WSW 10.4 mph - N/A   Scattered Clouds
10:53 AM 72.0 °F 59.0 °F 64% 29.63 in 10.0 mi West 12.7 mph - N/A   Partly Cloudy
11:53 AM 75.0 °F 59.0 °F 57% 29.63 in 10.0 mi West 9.2 mph - N/A   Mostly Cloudy
12:53 PM 77.0 °F 61.0 °F 58% 29.62 in 10.0 mi Variable 6.9 mph - N/A   Scattered Clouds
1:53 PM 78.1 °F 60.1 °F 54% 29.61 in 10.0 mi West 8.1 mph - N/A   Partly Cloudy
2:53 PM 77.0 °F 60.1 °F 56% 29.62 in 10.0 mi SSW 11.5 mph - N/A   Mostly Cloudy
3:53 PM 77.0 °F 60.1 °F 56% 29.62 in 10.0 mi SW 8.1 mph - N/A   Mostly Cloudy
4:53 PM 72.0 °F 62.1 °F 71% 29.65 in 10.0 mi Calm Calm - 0.00 in   Overcast
5:53 PM 77.0 °F 62.1 °F 60% 29.63 in 10.0 mi Calm Calm - N/A   Partly Cloudy
6:53 PM 75.0 °F 63.0 °F 66% 29.65 in 10.0 mi ESE 5.8 mph - N/A   Mostly Cloudy
7:53 PM 71.1 °F 63.0 °F 75% 29.68 in 10.0 mi SSE 3.5 mph - N/A   Scattered Clouds
8:53 PM 68.0 °F 61.0 °F 78% 29.70 in 10.0 mi Calm Calm - N/A   Clear
9:53 PM 66.9 °F 62.1 °F 84% 29.71 in 10.0 mi Calm Calm - N/A   Scattered Clouds
10:53 PM 64.9 °F 62.1 °F 90% 29.73 in 10.0 mi West 3.5 mph - N/A   Scattered Clouds
11:53 PM 64.0 °F 61.0 °F 90% 29.73 in 8.0 mi Calm Calm - N/A   Clear